CW4869 Weather Reports


Display with metric or nautical units.
time (UTC)temp
F
wind
direction
speed
MPH
gust
MPH
rain 1hr
in
rain 24hr
in
rain mn
in
humidity
%
barometer
mb
20260503044030 47 335 3.0 6.0 0.00 0.00 0.00 50 1011.9
20260503043600 48 314 3.0 6.0 0.00 0.00 0.00 50 1011.9
20260503043031 47 319 3.0 6.0 0.00 0.00 0.00 50 1012.0
20260503042543 48 342 4.0 10.0 0.00 0.00 0.00 49 1011.9
20260503042053 48 262 4.0 10.0 0.00 0.00 0.00 48 1012.0
20260503041522 48 327 5.0 8.0 0.00 0.00 0.00 48 1012.0
20260503041100 48 269 3.0 7.0 0.00 0.00 0.00 48 1012.0
20260503040534 48 283 3.0 8.0 0.00 0.00 0.00 48 1012.0
20260503040037 47 318 3.0 6.0 0.00 0.00 0.00 48 1012.0
20260503035557 47 321 3.0 5.0 0.00 0.00 0.00 50 1012.0
20260503035041 48 309 2.0 6.0 0.00 0.00 0.00 48 1012.0
20260503034530 47 311 2.0 6.0 0.00 0.00 0.00 48 1012.0
20260503034041 47 321 2.0 7.0 0.00 0.00 0.00 47 1012.1
20260503033527 48 331 2.0 7.0 0.00 0.00 0.00 46 1012.1
20260503033039 48 316 3.0 7.0 0.00 0.00 0.00 46 1012.1
20260503032526 48 324 3.0 6.0 0.00 0.00 0.00 45 1012.1
20260503032039 48 284 3.0 5.0 0.00 0.00 0.00 45 1012.2
20260503031534 48 342 3.0 5.0 0.00 0.00 0.00 46 1012.2
20260503031027 48 269 3.0 6.0 0.00 0.00 0.00 45 1012.1
20260503030536 48 254 3.0 6.0 0.00 0.00 0.00 45 1012.2
20260503030024 48 314 3.0 6.0 0.00 0.00 0.00 47 1012.2
20260503025531 48 331 2.0 6.0 0.00 0.00 0.00 46 1012.2
20260503025042 48 338 3.0 6.0 0.00 0.00 0.00 45 1012.2
20260503024531 48 319 4.0 6.0 0.00 0.00 0.00 43 1012.3
20260503024040 49 328 2.0 7.0 0.00 0.00 0.00 45 1012.3
20260503023547 49 315 3.0 7.0 0.00 0.00 0.00 45 1012.3
20260503023101 49 350 4.0 7.0 0.00 0.00 0.00 45 1012.3
20260503022056 49 328 4.0 6.0 0.00 0.00 0.00 44 1012.4
20260503021523 49 308 3.0 7.0 0.00 0.00 0.00 46 1012.3
20260503021033 49 6 2.0 10.0 0.00 0.00 0.00 44 1012.3
20260503020523 49 1 4.0 21.0 0.00 0.00 0.00 44 1012.3
20260503020034 49 32 3.0 21.0 0.00 0.00 0.00 55 1012.3
20260503015556 50 216 13.0 17.0 0.00 0.00 0.00 62 1012.3
20260503015036 50 204 12.0 15.0 0.00 0.00 0.00 62 1012.2
20260503014548 49 189 12.0 16.0 0.00 0.00 0.00 62 1012.1
20260503014033 49 195 12.0 15.0 0.00 0.00 0.00 62 1012.1
20260503013541 49 200 12.0 14.0 0.00 0.00 0.00 61 1012.0
20260503013035 50 187 10.0 14.0 0.00 0.00 0.00 63 1012.0
20260503012524 49 179 10.0 14.0 0.00 0.00 0.00 60 1012.0
20260503012033 50 206 11.0 15.0 0.00 0.00 0.00 61 1012.0
20260503011547 50 194 13.0 17.0 0.00 0.00 0.00 61 1012.0
20260503011039 51 208 13.0 17.0 0.00 0.00 0.00 58 1011.9
20260503010523 51 226 14.0 18.0 0.00 0.00 0.00 58 1011.9
20260503010035 51 216 16.0 17.0 0.00 0.00 0.00 58 1011.9
20260503005523 51 216 14.0 18.0 0.00 0.00 0.00 60 1011.9
20260503005037 51 218 15.0 17.0 0.00 0.00 0.00 60 1012.0
20260503004522 50 221 15.0 17.0 0.00 0.00 0.00 56 1011.9
20260503004035 51 220 14.0 17.0 0.00 0.00 0.00 58 1012.0
20260503003523 51 222 14.0 16.0 0.00 0.00 0.00 57 1012.0
20260503003032 51 213 13.0 16.0 0.00 0.00 0.00 56 1012.0
20260503002529 51 224 12.0 16.0 0.00 0.00 0.00 57 1012.0
20260503002039 51 224 13.0 16.0 0.00 0.00 0.00 54 1012.0
20260503001523 51 244 13.0 15.0 0.00 0.00 0.00 59 1012.0
20260503001036 51 217 14.0 15.0 0.00 0.00 0.00 57 1011.9
20260503000522 51 236 12.0 14.0 0.00 0.00 0.00 57 1012.0
20260503000037 50 219 11.0 15.0 0.00 0.00 0.00 58 1012.0
20260502235541 50 211 13.0 16.0 0.00 0.00 0.00 53 1012.0
20260502235034 50 235 13.0 18.0 0.00 0.00 0.00 55 1012.0
20260502234524 51 216 16.0 18.0 0.00 0.00 0.00 55 1012.0
20260502234058 50 222 15.0 17.0 0.00 0.00 0.00 57 1012.0
20260502233527 50 216 15.0 17.0 0.00 0.00 0.00 56 1012.1
20260502233038 50 229 12.0 17.0 0.00 0.00 0.00 56 1012.0
20260502232525 50 210 15.0 17.0 0.00 0.00 0.00 56 1012.1
20260502232047 50 213 14.0 17.0 0.00 0.00 0.00 55 1012.2
20260502231533 50 220 14.0 19.0 0.00 0.00 0.00 56 1012.3
20260502231046 50 222 15.0 19.0 0.00 0.00 0.00 57 1012.3
20260502230536 50 223 15.0 19.0 0.00 0.00 0.00 56 1012.3
20260502230026 50 224 14.0 17.0 0.00 0.00 0.00 56 1012.4
20260502225534 50 225 14.0 18.0 0.00 0.00 0.00 58 1012.4
20260502225039 50 219 15.0 18.0 0.00 0.00 0.00 55 1012.5
20260502224610 50 231 13.0 16.0 0.00 0.00 0.00 58 1012.5
20260502224028 50 218 10.0 18.0 0.00 0.00 0.00 54 1012.6
20260502223538 50 238 13.0 18.0 0.00 0.00 0.00 59 1012.6
20260502223058 50 215 10.0 15.0 0.00 0.00 0.00 53 1012.7
20260502222530 50 209 11.0 17.0 0.00 0.00 0.00 55 1012.7
20260502222024 50 218 13.0 17.0 0.00 0.00 0.00 55 1012.8
20260502221551 50 226 13.0 17.0 0.00 0.00 0.00 59 1012.8
20260502221023 50 217 11.0 17.0 0.00 0.00 0.00 59 1012.9
20260502220531 50 233 14.0 17.0 0.00 0.00 0.00 56 1013.0
20260502220040 49 217 10.0 15.0 0.00 0.00 0.00 55 1013.0
20260502215556 49 213 12.0 16.0 0.00 0.00 0.00 55 1013.0
20260502215046 50 226 12.0 16.0 0.00 0.00 0.00 57 1013.0
20260502214529 50 226 11.0 16.0 0.00 0.00 0.00 54 1013.0
20260502214104 50 223 12.0 16.0 0.00 0.00 0.00 56 1013.0
20260502213530 50 219 12.0 17.0 0.00 0.00 0.00 58 1013.0
20260502213041 50 215 11.0 17.0 0.00 0.00 0.00 55 1013.1
20260502212527 50 225 10.0 17.0 0.00 0.00 0.00 54 1013.1
20260502211522 49 229 11.0 18.0 0.00 0.00 0.00 55 1013.1
20260502211030 49 227 12.0 15.0 0.00 0.00 0.00 54 1013.2
20260502210537 50 241 13.0 16.0 0.00 0.00 0.00 60 1013.3
20260502210040 50 240 11.0 16.0 0.00 0.00 0.00 56 1013.3
20260502205525 49 230 12.0 16.0 0.00 0.00 0.00 60 1013.4
20260502205038 50 231 13.0 18.0 0.00 0.00 0.00 60 1013.4
20260502204528 49 231 14.0 18.0 0.00 0.00 0.00 57 1013.4
20260502204102 50 219 14.0 17.0 0.00 0.00 0.00 56 1013.5
20260502203529 50 228 12.0 17.0 0.00 0.00 0.00 57 1013.6
20260502203047 50 222 13.0 16.0 0.00 0.00 0.00 56 1013.7
20260502202539 50 219 12.0 19.0 0.00 0.00 0.00 57 1013.8
20260502202059 50 241 13.0 19.0 0.00 0.00 0.00 57 1013.8
20260502201527 49 228 12.0 16.0 0.00 0.00 0.00 57 1013.9
20260502201041 48 218 13.0 17.0 0.00 0.00 0.00 54 1014.0
20260502200527 48 220 14.0 17.0 0.00 0.00 0.00 58 1014.0
20260502200037 48 217 13.0 16.0 0.00 0.00 0.00 57 1014.1
20260502195029 48 229 9.0 16.0 0.00 0.00 0.00 58 1014.3
20260502194537 49 233 13.0 16.0 0.00 0.00 0.00 59 1014.4
20260502194024 49 244 13.0 16.0 0.00 0.00 0.00 57 1014.4
20260502193530 49 239 13.0 16.0 0.00 0.00 0.00 57 1014.4
20260502193023 48 226 12.0 15.0 0.00 0.00 0.00 62 1014.5
20260502192531 49 228 12.0 15.0 0.00 0.00 0.00 56 1014.6
20260502192043 49 236 12.0 14.0 0.00 0.00 0.00 61 1014.6
20260502191526 48 242 12.0 15.0 0.00 0.00 0.00 61 1014.7
20260502191039 47 230 13.0 15.0 0.00 0.00 0.00 62 1014.7
20260502190551 48 229 11.0 14.0 0.00 0.00 0.00 63 1014.7
20260502190038 48 232 11.0 15.0 0.00 0.00 0.00 60 1014.8
20260502185526 48 244 12.0 15.0 0.00 0.00 0.00 60 1014.9
20260502185101 47 232 12.0 14.0 0.00 0.00 0.00 63 1015.0
20260502184526 47 224 11.0 16.0 0.00 0.00 0.00 60 1014.9
20260502184038 47 248 13.0 16.0 0.00 0.00 0.00 62 1015.0
20260502183554 47 231 10.0 14.0 0.00 0.00 0.00 58 1015.0
20260502183025 47 240 11.0 14.0 0.00 0.00 0.00 61 1015.0
20260502182528 47 236 12.0 14.0 0.00 0.00 0.00 59 1015.0
20260502182104 48 226 11.0 14.0 0.00 0.00 0.00 58 1015.1
20260502181555 47 240 10.0 13.0 0.00 0.00 0.00 58 1015.1
20260502181028 47 239 10.0 15.0 0.00 0.00 0.00 58 1015.1
20260502180602 47 242 10.0 14.0 0.00 0.00 0.00 57 1015.1
20260502164051 46 250 9.0 12.0 0.00 0.00 0.00 60 1015.6
20260502163540 46 285 8.0 13.0 0.00 0.00 0.00 56 1015.6
20260502163028 46 246 10.0 13.0 0.00 0.00 0.00 63 1015.6
20260502162541 45 246 10.0 12.0 0.00 0.00 0.00 64 1015.7
20260502162028 45 237 9.0 12.0 0.00 0.00 0.00 64 1015.6
20260502161534 45 259 7.0 13.0 0.00 0.00 0.00 59 1015.6
20260502161036 45 259 9.0 14.0 0.00 0.00 0.00 59 1015.7
20260502160541 45 257 9.0 14.0 0.00 0.00 0.00 60 1015.7
20260502152036 45 265 7.0 16.0 0.00 0.00 0.00 55 1016.0
20260502151522 45 300 8.0 16.0 0.00 0.00 0.00 58 1016.0
20260502151030 44 251 6.0 10.0 0.00 0.00 0.00 58 1015.9
20260502150538 44 285 4.0 9.0 0.00 0.00 0.00 60 1015.9
20260502130537 41 354 3.0 9.0 0.00 0.00 0.00 69 1016.0
20260502123533 40 269 4.0 7.0 0.00 0.00 0.00 73 1016.2
20260502123024 39 290 2.0 6.0 0.00 0.00 0.00 74 1016.2
20260502122526 39 283 3.0 10.0 0.00 0.00 0.00 75 1016.2
20260502122036 39 4 3.0 10.0 0.00 0.00 0.00 75 1016.1
20260502121057 39 56 2.0 8.0 0.00 0.00 0.00 76 1016.1
20260502120550 39 330 3.0 8.0 0.00 0.00 0.00 77 1016.1
20260502120128 39 6 4.0 11.0 0.00 0.00 0.00 77 1016.1
20260502115525 38 310 3.0 11.0 0.00 0.00 0.00 77 1016.1
20260502115039 38 18 5.0 10.0 0.00 0.00 0.00 77 1016.1
20260502114526 38 331 2.0 11.0 0.00 0.00 0.00 77 1016.0
20260502114047 38 331 5.0 11.0 0.00 0.00 0.00 78 1016.0
20260502113535 38 328 5.0 8.0 0.00 0.00 0.00 78 1016.0
20260502113027 38 314 2.0 9.0 0.00 0.00 0.00 79 1016.0
20260502112557 38 291 3.0 9.0 0.00 0.00 0.00 79 1016.0
20260502112026 38 9 2.0 11.0 0.00 0.00 0.00 79 1015.9
20260502111536 38 1 5.0 11.0 0.00 0.00 0.00 80 1015.8
20260502111027 38 342 3.0 8.0 0.00 0.00 0.00 80 1015.8
20260502110523 38 348 4.0 9.0 0.00 0.00 0.00 80 1015.8
20260502110034 38 340 4.0 10.0 0.00 0.00 0.00 80 1015.8
20260502105521 38 316 3.0 9.0 0.00 0.00 0.00 80 1015.6
20260502105030 38 334 4.0 9.0 0.00 0.00 0.00 80 1015.6
20260502104538 38 340 3.0 8.0 0.00 0.00 0.00 80 1015.5
20260502104031 38 306 3.0 9.0 0.00 0.00 0.00 80 1015.5
20260502103604 38 351 3.0 9.0 0.00 0.00 0.00 80 1015.5
20260502103026 38 1 3.0 8.0 0.00 0.00 0.00 80 1015.6
20260502102535 38 333 3.0 7.0 0.00 0.00 0.00 80 1015.5
20260502102038 38 346 4.0 7.0 0.00 0.00 0.00 80 1015.5
20260502101526 38 331 3.0 8.0 0.00 0.00 0.00 80 1015.5
20260502101036 38 327 2.0 8.0 0.00 0.00 0.00 80 1015.5
20260502100545 38 321 2.0 11.0 0.00 0.00 0.00 79 1015.5
20260502091043 39 296 4.0 9.0 0.00 0.00 0.00 76 1015.4
20260502090531 39 360 4.0 9.0 0.00 0.00 0.00 75 1015.3
20260502071534 40 321 3.0 10.0 0.00 0.00 0.00 70 1015.0
20260502071027 40 300 5.0 10.0 0.00 0.00 0.00 69 1015.1
20260502070537 40 305 3.0 8.0 0.00 0.00 0.00 69 1015.0
20260502070027 40 331 4.0 9.0 0.00 0.00 0.00 69 1015.1
20260502065534 40 314 3.0 9.0 0.00 0.00 0.00 69 1015.1
20260502065027 40 314 3.0 7.0 0.00 0.00 0.00 70 1015.2
20260502064531 41 317 3.0 9.0 0.00 0.00 0.00 70 1015.3
20260502064025 41 301 4.0 9.0 0.00 0.00 0.00 70 1015.3
20260502063558 41 98 3.0 9.0 0.00 0.00 0.00 70 1015.3
20260502063027 41 352 5.0 9.0 0.00 0.00 0.00 69 1015.3
20260502062531 41 324 4.0 9.0 0.00 0.00 0.00 69 1015.3
20260502062112 41 21 3.0 9.0 0.00 0.00 0.00 69 1015.3
20260502061030 41 331 3.0 8.0 0.00 0.00 0.00 67 1015.3
20260502060540 41 324 4.0 8.0 0.00 0.00 0.00 67 1015.3
20260502060041 41 4 5.0 8.0 0.00 0.00 0.00 67 1015.2
20260502055524 41 350 4.0 9.0 0.00 0.00 0.00 67 1015.2
20260502055036 41 356 4.0 8.0 0.00 0.00 0.00 68 1015.3
20260502054527 41 320 4.0 9.0 0.00 0.00 0.00 69 1015.3
20260502054033 41 1 3.0 9.0 0.00 0.00 0.00 68 1015.3
20260502053543 41 353 4.0 9.0 0.00 0.00 0.00 66 1015.3
20260502053036 41 340 5.0 9.0 0.00 0.00 0.00 67 1015.2
20260502052522 41 15 3.0 8.0 0.00 0.00 0.00 68 1015.1
20260502052150 41 351 3.0 11.0 0.00 0.00 0.00 68 1015.1
20260502051523 41 28 3.0 11.0 0.00 0.00 0.00 66 1015.2
20260502051039 41 1 5.0 12.0 0.00 0.00 0.00 66 1015.2
20260502050528 41 15 4.0 11.0 0.00 0.00 0.00 66 1015.2
20260502050035 41 347 5.0 11.0 0.00 0.00 0.00 65 1015.2
20260502045522 41 346 4.0 10.0 0.00 0.00 0.00 65 1015.1
20260502045032 41 355 4.0 9.0 0.00 0.00 0.00 65 1015.1
20260502044601 41 15 3.0 11.0 0.00 0.00 0.00 64 1015.0